Regional Weather Roundup
Issued by NWS

Home | Current Version | Previous Version | Graphics & Text | Print | Product List | Glossary On
Versions: 1 2 3 4 5 6 7 8 9 10 11 12 13 14 15 16 17 18 19 20 21 22 23 24 25 26 27 28 29 30 31 32 33 34 35 36 37 38 39 40 41 42 43 44 45 46 47 48 49 50
000
ASUS43 KMKX 230420
RWRWI

WISCONSIN REGIONAL WEATHER ROUNDUP
NATIONAL WEATHER SERVICE MILWAUKEE/SULLIVAN WI
1100 PM CDT SUN APR 22 2018

NOTE: "FAIR" INDICATES FEW OR NO CLOUDS BELOW 12,000 FEET WITH NO
SIGNIFICANT WEATHER AND/OR OBSTRUCTIONS TO VISIBILITY.

WIZ001-002-006>008-014>016-023>028-230500-
NORTHWEST WISCONSIN

CITY           SKY/WX    TMP DP  RH WIND       PRES   REMARKS
SUPERIOR ARPT  FAIR      32  28  86 CALM      30.24F
ASHLAND        FAIR      31  23  72 S5        30.25F WCI  26
HAYWARD        FAIR      36  27  69 CALM      30.26F
SIREN          FAIR      38  29  70 CALM      30.25S
CUMBERLAND     FAIR      45  28  53 CALM      30.25F
RICE LAKE      FAIR      43  32  65 CALM      30.27F
CHETEK         FAIR      42  29  60 SE3       30.26F
LADYSMITH      FAIR      41  27  57 SE5       30.28F
EAU CLAIRE     FAIR      50  27  40 SE7       30.26S
MENOMONIE      FAIR      46  33  62 CALM      30.26S
NEW RICHMOND   FAIR      40  34  77 CALM      30.25F
OSCEOLA        FAIR      40  34  80 CALM      30.27F
$$

WIZ003>005-009-010-017-018-230500-
NORTH CENTRAL WISCONSIN

CITY           SKY/WX    TMP DP  RH WIND       PRES   REMARKS
MANITOWISH WTR FAIR      36  25  64 S3        30.26F
ARBOR VITAE    FAIR      41  25  53 CALM      30.27F
WOODRUFF       FAIR      41  25  53 CALM      30.27F
RHINELANDER    FAIR      41  20  43 S3        30.28F
EAGLE RIVER    FAIR      34  20  56 CALM      30.27F
LAND O LAKES   FAIR      35  22  59 CALM      30.28F
PHILLIPS       FAIR      35  26  72 CALM      30.26F
TOMAHAWK       FAIR      35  19  53 CALM      30.29F
MEDFORD        FAIR      43  20  39 SE3       30.27F
MERRILL          N/A     32  22  66 CALM      30.30S
$$

WIZ029-030-035-036-043>047-230500-
CENTRAL WISCONSIN

CITY           SKY/WX    TMP DP  RH WIND       PRES   REMARKS
WAUSAU         FAIR      40  17  39 CALM      30.27F
MOSINEE        FAIR      43  18  36 E3        30.30F
MARSHFIELD     FAIR      43  20  39 CALM      30.27F
STEVENS POINT  FAIR      32  22  67 CALM      30.30S
WAUPACA        FAIR      37  31  79 CALM      30.29F
WAUTOMA        FAIR      34  29  82 CALM      30.29F
WISC RAPIDS    FAIR      41  23  48 E5        30.29F
CAMP DOUGLAS   FAIR      37  28  70 CALM      30.27F
$$

WIZ011>013-019>022-031-037>040-048>050-230500-
NORTHEAST WISCONSIN

CITY           SKY/WX    TMP DP  RH WIND       PRES   REMARKS
ANTIGO         FAIR      37  23  58 CALM      30.30F
SHAWANO        FAIR      36  29  74 CALM      30.30F
OCONTO         FAIR      34  23  65 CALM      30.31F
STURGEON BAY   NOT AVBL
GREEN BAY      FAIR      41  32  70 CALM      30.31F
MANITOWOC      FAIR      37  29  72 CALM      30.32F
APPLETON       CLEAR     46  25  42 CALM      30.29S
CLINTONVILLE   FAIR      36  26  68 CALM      30.30F
OSHKOSH        FAIR      43  32  65 E3        30.29F
$$

WIZ032>034-041-042-053>061-230500-
SOUTHWEST WISCONSIN

CITY           SKY/WX    TMP DP  RH WIND       PRES   REMARKS
LA CROSSE      FAIR      46  31  55 CALM      30.26S
SPARTA         FAIR      36  25  65 CALM      30.28F
VIROQUA        FAIR      44  31  61 E7        30.25F
BOSCOBEL       FAIR      47  33  58 CALM      30.25F
PRAIRIE DU CHI FAIR      51  29  42 E6        30.24F
PLATTEVILLE    FAIR      45  32  60 E8        30.24F
$$

WIZ056-057-062-063-064-067-068-230500-
SOUTH CENTRAL WISCONSIN

CITY           SKY/WX    TMP DP  RH WIND       PRES   REMARKS
REEDSBURG      FAIR      44  29  56 CALM      30.26F
BARABOO/DELLS  FAIR      40  28  61 CALM      30.27F
LONE ROCK      FAIR      47  31  53 E5        30.25F
MINERAL POINT  FAIR      48  28  46 E7        30.24F
MADISON        FAIR      41  29  62 N5        30.26F
MIDDLETON      FAIR      40  35  81 CALM      30.26F
WATERTOWN      FAIR      42  28  57 E7        30.27F
MONROE         FAIR      48  23  37 NE8       30.24F
JANESVILLE     FAIR      45  28  53 E8        30.25F
$$

WIZ051-052-058>065-066-070>072-230500-
SOUTHEAST WISCONSIN

CITY           SKY/WX    TMP DP  RH WIND       PRES   REMARKS
MILWAUKEE      FAIR      43  28  55 CALM      30.28F
WAUKESHA       FAIR      37  25  60 NE5       30.29F WCI  34
MILWAUKEE/TIMM FAIR      39  27  60 CALM      30.29F
RACINE         FAIR      40  27  59 N6        30.29F
BURLINGTON     FAIR      40  26  57 CALM      30.27F
KENOSHA        FAIR      43  27  53 N3        30.27F
FOND DU LAC    FAIR      39  30  70 CALM      30.29F
SHEBOYGAN      FAIR      36  30  79 CALM      30.30F
WEST BEND      FAIR      36  28  75 CALM      30.29F
JUNEAU         FAIR      44  25  47 NE5       30.29S
$$

LSZ147-162-230500-
LAKE SUPERIOR

STATION/POSITION TIME  TEMP    WIND        PRES    WAVE
                       AIR SEA DIR/SP/G            HT/PER
                 (UTC) (F)     (DEG/KT/KT) (MB)    (FT/S)
DEVILS ISLAND    0400   49     180/  7/  8 1024.1F
SAXON HARBOR     0340   34      CALM  /  3 1023.7R
$$

LMZ867-665-643>646-230500-
LAKE MICHIGAN

STATION/POSITION TIME  TEMP    WIND        PRES    WAVE
                       AIR SEA DIR/SP/G            HT/PER
                 (UTC) (F)     (DEG/KT/KT) (MB)    (FT/S)
NORTHPORT PIER   0340   38                 1026.8S
KEWAUNEE LAKESHO 0400   34     310/  2/  4 1025.8
SHEBOYGAN LAKESH 0400   42     340/  5/  6 1026.5F
PORT WASHINGTON  0340   43     360/  3/  4 1026.8F
MILWAUKEE LAKESH 0400   44     350/  5/  7   N/A
KENOSHA   LAKESH 0400   43                 1024.7
$$

TC  - TEMPERATURE IN CELSIUS
VSB - VISIBILITY IN STATUTE MILES
WCI - WIND CHILL INDEX
HX  - HEAT INDEX





USA.gov is the U.S. government's official web portal to all federal, state and local government web resources and services.